Location: Cedar Brake
(32.2526°N, 97.8459°W)
Time: 20:57:12
(UTC+00:00)

Okean-O - Pass Details

Date: 22 April 2026
Orbit: 627 x 629 km, 97.9° (Epoch: 21 May)

Event Time Altitude Azimuth Distance (km) Brightness Sun altitude
Exits shadow 02:54:01 24° 48° (NE) 1,320 4.1 -21.9°
Drops below altitude 10° 02:56:35 10° 15° (NNE) 2,010 5.4 -22.4°
Sets 02:59:03 0° 3° (N) 2,921 6.4 -22.8°
